New York Downtown Manhattan/w, NY

12:56 PM EDT on October 17, 2019 (GMT -0400)
New York Downtown Manhattan/w

Weather History for KJRB - August, 2019

Change the Weather History Date:

Tuesday, August 6, 2019

  Actual Average (WUND) Record (WUND)
Temperature  
Mean Temperature 78 °F -  
Max Temperature 82 °F - - (-1)
Min Temperature 73 °F - - (-1)
Cooling Degree Days 12    
Growing Degree Days 28 (Base 50)    
Moisture  
Dew Point 70 °F    
Average Humidity 79    
Maximum Humidity 94    
Minimum Humidity 62    
Precipitation  
Precipitation 0.03 in - - ()
Sea Level Pressure  
Sea Level Pressure 29.89 in    
Wind  
Wind Speed 5 mph (ESE)    
Max Wind Speed 14 mph    
Max Gust Speed 43 mph    
Visibility 10 miles    
Events Thunderstorm    
Averages and records for this station are not official NWS values.
T = Trace of Precipitation, MM = Missing Value Source: NWS Daily Summary

Daily Weather History Graph

Daily Weather History Graph

Search for Another Location

Airport or City:

Astronomy

Aug. 06, 2019 Rise Set
Actual Time 5:57 AM EDT 8:05 PM EDT
Civil Twilight 5:27 AM EDT 8:36 PM EDT
Nautical Twilight 4:49 AM EDT 9:13 PM EDT
Astronomical Twilight 4:09 AM EDT 9:53 PM EDT
Moon 12:21 PM EDT (8/6) 11:47 PM EDT (8/6)
Length of Visible Light 15h 09m
Length of Day
14h 08m
Waxing Crescent, 38% of the Moon is Illuminated
Aug 6
Waxing Crescent
Aug 7
First Quarter
Aug 15
Full
Aug 23
Last Quarter
Aug 30
New

Hourly Weather History & Observations

Time (EDT) Temp. Heat Index Dew Point Humidity Pressure Visibility Wind Dir Wind Speed Gust Speed Precip Events Conditions
12:56 AM 75.0 °F - 71.1 °F 87% 29.95 in 10.0 mi SSE 3.5 mph - N/A   Partly Cloudy
1:56 AM 75.0 °F - 71.1 °F 87% 29.92 in 10.0 mi Calm Calm - N/A   Partly Cloudy
2:56 AM 75.0 °F - 71.1 °F 87% 29.91 in 10.0 mi ENE 3.5 mph - N/A   Partly Cloudy
3:10 AM 75.2 °F - 71.6 °F 89% 29.92 in 10.0 mi NE 3.5 mph - N/A   Mostly Cloudy
3:24 AM 75.2 °F - 71.6 °F 89% 29.92 in 10.0 mi NNE 3.5 mph - N/A   Scattered Clouds
3:56 AM 75.0 °F - 71.1 °F 87% 29.91 in 10.0 mi NE 4.6 mph - N/A   Partly Cloudy
4:38 AM 75.2 °F - 71.6 °F 89% 29.92 in 10.0 mi NE 4.6 mph - N/A   Mostly Cloudy
4:45 AM 75.2 °F - 71.6 °F 89% 29.92 in 10.0 mi NNE 3.5 mph - N/A   Mostly Cloudy
4:56 AM 75.0 °F - 71.1 °F 87% 29.92 in 10.0 mi NNE 4.6 mph - N/A   Mostly Cloudy
5:56 AM 73.9 °F - 71.1 °F 91% 29.91 in 10.0 mi NE 5.8 mph - N/A   Clear
6:19 AM 73.4 °F - 71.6 °F 94% 29.92 in 10.0 mi ENE 5.8 mph - N/A   Mostly Cloudy
6:31 AM 73.4 °F - 71.6 °F 94% 29.92 in 10.0 mi NE 6.9 mph - N/A   Scattered Clouds
6:56 AM 73.9 °F - 71.1 °F 91% 29.92 in 10.0 mi ENE 8.1 mph - N/A   Partly Cloudy
7:56 AM 73.9 °F - 70.0 °F 87% 29.91 in 10.0 mi ENE 8.1 mph - N/A   Clear
8:56 AM 75.0 °F - 71.1 °F 87% 29.91 in 8.0 mi ENE 6.9 mph - N/A   Clear
10:56 AM 78.1 °F - 71.1 °F 79% 29.91 in 10.0 mi NE 3.5 mph - 0.03 in   Scattered Clouds
11:07 AM 78.8 °F - 71.6 °F 78% 29.91 in 10.0 mi Variable 5.8 mph - N/A   Mostly Cloudy
11:56 AM 79.0 °F - 69.1 °F 72% 29.91 in 10.0 mi SE 5.8 mph - N/A   Mostly Cloudy
12:05 PM 78.8 °F - 69.8 °F 74% 29.91 in 8.0 mi SE 6.9 mph - N/A   Scattered Clouds
12:56 PM 79.0 °F - 70.0 °F 74% 29.90 in 10.0 mi Variable 4.6 mph - N/A   Scattered Clouds
1:20 PM 78.8 °F - 69.8 °F 74% 29.89 in 10.0 mi ESE 4.6 mph - N/A   Mostly Cloudy
1:46 PM 78.8 °F - 69.8 °F 74% 29.88 in 9.0 mi SE 5.8 mph - N/A   Scattered Clouds
1:56 PM 78.1 °F - 70.0 °F 76% 29.88 in 10.0 mi ESE 5.8 mph - N/A   Scattered Clouds
2:19 PM 78.8 °F - 69.8 °F 74% 29.87 in 10.0 mi Variable 5.8 mph 38.0 mph N/A   Mostly Cloudy
2:28 PM 78.8 °F - 69.8 °F 74% 29.87 in 10.0 mi South 8.1 mph - N/A   Scattered Clouds
2:56 PM 78.1 °F - 69.1 °F 74% 29.86 in 10.0 mi Variable 5.8 mph - N/A   Scattered Clouds
3:04 PM 78.8 °F - 69.8 °F 74% 29.86 in 10.0 mi Variable 6.9 mph - N/A   Mostly Cloudy
3:16 PM 78.8 °F - 69.8 °F 74% 29.86 in 10.0 mi South 6.9 mph - N/A   Scattered Clouds
3:45 PM 80.6 °F 83.9 °F 69.8 °F 70% 29.85 in 10.0 mi SE 4.6 mph - N/A   Mostly Cloudy
3:52 PM 80.6 °F 83.9 °F 69.8 °F 70% 29.85 in 10.0 mi SSE 6.9 mph - N/A Thunderstorm Mostly Cloudy
3:56 PM 80.1 °F 82.9 °F 69.1 °F 69% 29.85 in 10.0 mi South 9.2 mph 26.5 mph N/A Thunderstorm Scattered Clouds
4:12 PM 82.4 °F 86.3 °F 69.8 °F 66% 29.85 in 10.0 mi South 13.8 mph 42.6 mph N/A   Partly Cloudy
4:21 PM 80.6 °F 83.9 °F 69.8 °F 70% 29.85 in 10.0 mi Variable 5.8 mph 42.6 mph N/A Thunderstorm Partly Cloudy
4:56 PM 82.0 °F 84.9 °F 68.0 °F 62% 29.85 in 10.0 mi South 11.5 mph - N/A   Clear
5:56 PM 81.0 °F 83.8 °F 68.0 °F 65% 29.84 in 10.0 mi South 6.9 mph - N/A   Clear
6:56 PM 79.0 °F - 66.9 °F 66% 29.84 in 10.0 mi South 6.9 mph - N/A   Clear
7:56 PM 77.0 °F - 69.1 °F 76% 29.84 in 10.0 mi Variable 5.8 mph - N/A   Clear
8:56 PM 77.0 °F - 69.1 °F 76% 29.85 in 10.0 mi SSE 4.6 mph - N/A   Clear
9:56 PM 75.9 °F - 70.0 °F 82% 29.86 in 10.0 mi Variable 3.5 mph - N/A   Clear
10:56 PM 75.9 °F - 69.1 °F 79% 29.86 in 10.0 mi WSW 4.6 mph - N/A   Clear
11:56 PM 75.9 °F - 70.0 °F 82% 29.85 in 10.0 mi SW 4.6 mph - N/A   Clear